Location: Camps Bay
(33.9517°S, 18.3844°E)
Time: 22:40:17
(UTC+00:00)

Lacrosse 5 - Pass Details

Date: 18 January 2020
Orbit: 717 x 722 km, 57.0° (Epoch: 06 February)

Event Time Altitude Azimuth Distance (km) Brightness Sun altitude
Rises 03:21:52 0° 230° (SW) 3,157 5.0 -6.6°
Reaches altitude 10° 03:24:28 10° 239° (WSW) 2,229 4.1 -6.1°
Maximum altitude 03:29:00 32° 301° (WNW) 1,239 2.6 -5.3°
Drops below altitude 10° 03:33:28 10° 3° (N) 2,205 4.1 -4.5°
Sets 03:36:03 0° 13° (NNE) 3,117 5.0 -4.0°
